User: anonymous   Login
Location: Unspecified
(0.0000°N, 0.0000°E)
Time: 07:24:57
(UTC+00:00)
Language:

Vanguard 2 - Orbit

View from above orbital plane
View from above orbital plane
View from above satellite
View from above satellite

Ground track
Ground track

The orbit data is extracted from the following two-line orbital elements,

1    11U 59001A   20299.88151641 +.00000185 +00000-0 +79813-4 0  9999
2    11 032.8781 285.7003 1467076 267.7711 075.4772 11.85682459290462
Epoch (UTC): 25 October 2020 21:09:23
Eccentricity: 0.1467076
inclination: 32.8781°
perigee height: 554 km
apogee height: 2937 km
right ascension of ascending node: 285.7003°
argument of perigee: 267.7711°
revolutions per day: 11.85682459
mean anomaly at epoch: 75.4772°
orbit number at epoch: 29046

The dashed part of the orbit path shows where the satellite is in the earth's shadow,  

DLR